Rangkul

Tajikistan     38˚28′34″N   74˚14′51″E
temp.,
°C
wind,
m/s
gust,
m/s
humid.,
%
clouds,
%
prec.,
mm/h
press.,
hPa
HPBL,
m
28 november, sat
sat2823:00−21˚n00725 0.0 103738
02:00−21˚nnw11750 0.0 103638
05:00−22˚nne01730 0.0 103637
08:00−22˚w00681 0.0 103533
11:00−18˚wnw12581 0.0 1031198
14:00−15˚e22594 0.0 1028139
17:00−17˚nne22652 0.0 103454
20:00−19˚nw11690 0.0 103831
29 november, sun
sun2923:00−20˚wnw11750 0.0 104125
02:00−22˚wnw117617 0.0 104131
05:00−23˚nnw117917 0.0 104238
08:00−23˚nne008521 0.0 104260
11:00−20˚n017639 0.0 1035237
14:00−18˚nne106515 0.0 1031227
17:00−21˚nne11727 0.0 103456
20:00−21˚nne116897 0.0 103556
30 november, mon
mon3023:00−21˚ese016898 0.0 103554
02:00−21˚nne116761 0.0 103640
05:00−22˚nne116731 0.0 103832
08:00−22˚ne016817 0.0 103843
11:00−18˚nnw016743 0.0 1033212
14:00−16˚ene117229 0.0 1029246
17:00−19˚nne118315 0.0 103246
20:00−20˚nne118878 0.0 103449
1 december, tue
tue123:00−20˚ne019280 0.0 103446
02:00−20˚ne0198100 0.1 103350
05:00−21˚nne019999 0.1 103354
08:00−21˚n019475 0.1 103357
11:00−17˚wnw117458 0.1 1028278
14:00−16˚ne016913 0.0 1024225
17:00−18˚nne11757 0.0 102844
20:00−19˚n11780 0.0 103237
2 december, wed
wed223:00−19˚n11848 0.0 103433
02:00−20˚n119171 0.0 103632
05:00−20˚nne119882 0.1 103837
08:00−20˚ene009899 0.1 104052
11:00−17˚s018699 0.1 1035231
14:00−15˚nne017992 0.0 1030232
17:00−19˚nne118850 0.0 103442
20:00−20˚nne119326 0.0 103639